TimeCDT,TemperatureF,Dew PointF,Humidity,Sea Level PressureIn,VisibilityMPH,Wind Direction,Wind SpeedMPH,Gust SpeedMPH,PrecipitationIn,Events,Conditions,WindDirDegrees,DateUTC
12:53 AM,48.9,34.0,56,30.06,10.0,SE,4.6,-,N/A,,Scattered Clouds,130,2011-11-05 05:53:00
1:53 AM,48.0,34.0,58,30.05,10.0,SE,3.5,-,N/A,,Scattered Clouds,130,2011-11-05 06:53:00
2:53 AM,46.9,36.0,66,30.04,10.0,SSE,8.1,-,N/A,,Partly Cloudy,150,2011-11-05 07:53:00
3:53 AM,46.9,36.0,66,30.04,10.0,Calm,Calm,-,N/A,,Partly Cloudy,0,2011-11-05 08:53:00
4:53 AM,45.0,37.0,74,30.04,10.0,SE,6.9,-,N/A,,Clear,140,2011-11-05 09:53:00
5:53 AM,44.1,37.0,76,30.04,10.0,SE,6.9,-,N/A,,Clear,130,2011-11-05 10:53:00
6:53 AM,44.6,37.4,76,30.04,10.0,SE,10.4,-,N/A,,Clear,130,2011-11-05 11:53:00
7:53 AM,45.0,39.0,80,30.04,10.0,SE,8.1,-,N/A,,Partly Cloudy,140,2011-11-05 12:53:00
8:53 AM,48.9,41.0,74,30.04,10.0,ESE,8.1,-,N/A,,Partly Cloudy,110,2011-11-05 13:53:00
9:53 AM,53.1,41.0,64,30.04,10.0,SSE,15.0,-,N/A,,Partly Cloudy,150,2011-11-05 14:53:00
10:53 AM,57.0,39.9,53,30.04,10.0,South,13.8,-,N/A,,Scattered Clouds,170,2011-11-05 15:53:00
11:53 AM,62.1,39.9,44,30.01,10.0,South,19.6,26.5,N/A,,Mostly Cloudy,170,2011-11-05 16:53:00
12:53 PM,64.0,39.0,40,29.95,10.0,South,20.7,31.1,N/A,,Mostly Cloudy,170,2011-11-05 17:53:00
1:53 PM,66.2,41.0,40,29.92,10.0,SSE,18.4,28.8,N/A,,Mostly Cloudy,150,2011-11-05 18:53:00
2:53 PM,66.2,42.8,43,29.88,10.0,SSE,18.4,27.6,N/A,,Mostly Cloudy,150,2011-11-05 19:53:00
3:53 PM,70.0,43.0,38,29.85,10.0,SSE,20.7,28.8,N/A,,Mostly Cloudy,150,2011-11-05 20:53:00
4:53 PM,71.1,45.0,39,29.84,10.0,SSE,18.4,27.6,N/A,,Mostly Cloudy,160,2011-11-05 21:53:00
5:53 PM,68.0,46.0,45,29.85,10.0,SSE,17.3,-,N/A,,Mostly Cloudy,150,2011-11-05 22:53:00
6:53 PM,66.0,46.9,50,29.83,10.0,SE,11.5,-,N/A,,Mostly Cloudy,130,2011-11-05 23:53:00
7:53 PM,64.4,48.2,56,29.86,10.0,SE,10.4,-,N/A,,Partly Cloudy,130,2011-11-06 00:53:00
8:53 PM,64.0,48.0,56,29.86,10.0,SE,11.5,-,N/A,,Overcast,130,2011-11-06 01:53:00
9:53 PM,64.0,48.9,58,29.85,10.0,SE,13.8,-,N/A,,Partly Cloudy,140,2011-11-06 02:53:00
10:53 PM,63.0,50.0,63,29.86,10.0,SE,11.5,-,N/A,,Partly Cloudy,140,2011-11-06 03:53:00
11:53 PM,63.0,52.0,67,29.87,10.0,SSE,12.7,-,N/A,,Scattered Clouds,150,2011-11-06 04:53:00